Other Public Products
Issued by NWS Charleston, SC

Home | Current Version | Previous Version | Text Only | Print | Product List | Glossary On
Versions: 1 2 3 4 5 6 7 8 9 10 11 12 13 14 15 16 17 18 19 20 21 22 23 24 25 26 27 28 29 30 31 32 33 34 35 36 37 38 39 40 41 42 43 44 45 46 47 48 49 50
000
FPUS82 KCHS 281327
OPUCHS

TEST...KCHS/KSAV Gateway Observations...TEST
National Weather Service Charleston SC
900 AM EDT TUE MAR 28 2017

NOTE: "fair" indicates few or no clouds below 12,000 feet with no
significant weather and/or obstructions to visibility.

SCZ050-WAZ558-NCZ071-TXZ119-213-PAZ071-DCZ001-FLZ074-172-MI076-
NYZ176-178-MAZ016-IL014-TNZ027-NJZ106-GAZ044-MD014-281400-

...Gateway Observations for Charleston International...

CITY           SKY/WX    TMP DP  RH WIND       PRES   REMARKS
Chas Airport   MOSUNNY   69  61  75 SW12      30.01S
Seattle        LGT RAIN  45  41  86 S10       30.22R
Charlotte      PTSUNNY   62  59  90 S9        29.95S
Dallas DFW     CLOUDY    64  57  78 E10       29.87R
Dallas Love    CLOUDY    64  57  78 E10       29.88R
Philladelphia  TSTM      51  49  92 N6        29.92R FOG
Wash National  CLOUDY    62  58  86 S8        29.87R
Baltimore      TSTM      56  56 100 CALM      29.86S FOG
Miami          MOSUNNY   72  62  71 N3        30.05R
Detroit        CLOUDY    44  39  82 N9        30.02R
Newark         CLOUDY    46  44  93 NE7       29.94F FOG
Laguardia      CLOUDY    44  40  85 NE15      29.95F FOG
J F K          CLOUDY    47  45  93 NE10      29.95F
Boston Logan   CLOUDY    37  35  92 NE6       30.05R WCI  32
Ft. Lauderdale MOSUNNY   72  63  73 NW6       30.04R
Chicago O`Hare CLOUDY    41  35  79 NE12      30.08R
Chicago Midway CLOUDY    41  36  82 N14G23    30.09R
Houston Bush   MOCLDY    70  69  97 SE6       29.88R FOG
Houston Hobby  MOCLDY    73  70  90 SE8       29.87R
Nashville      PTSUNNY   57  54  89 CALM      30.01R
Atlanta        CLOUDY    64  62  93 SW9       29.99R

$$

GAZ044-118-TXZ119-213-NCZ071-DCZ001-MDZ014-506-PAZ021-071-NJZ106-
NYZ176-178-MAZ106-OHZ011-021-055-MIZ076-KYZ091-ILZ014-INZ047-
MNZ060-ONZ431-281400-

...Gateway Observations for Savannah International...

CITY           SKY/WX    TMP DP  RH WIND       PRES   REMARKS
Savannah Arpt  MOSUNNY   68  58  70 W12       30.04R
Atlanta        CLOUDY    64  62  93 SW9       29.99R
Charlotte      PTSUNNY   62  59  90 S9        29.95S
Dallas DFW     CLOUDY    64  57  78 E10       29.87R
Houston Bush   MOCLDY    70  69  97 SE6       29.88R FOG
Wash National  CLOUDY    62  58  86 S8        29.87R
Wash Dulles    RAIN      60  58  92 W14       29.86S FOG
Baltimore      TSTM      56  56 100 CALM      29.86S FOG
Philadelphia   TSTM      51  49  92 N6        29.92R FOG
Newark         CLOUDY    46  44  93 NE7       29.94F FOG
Laguardia      CLOUDY    44  40  85 NE15      29.95F FOG
J F K          CLOUDY    47  45  93 NE10      29.95F
Boston         CLOUDY    37  35  92 NE6       30.05R WCI  32
Pittsburg      DRIZZLE   56  56 100 SE5       29.87R FOG
Akron          CLOUDY    52  49  89 N12       29.90R FOG
Cleveland      CLOUDY    44  40  85 N9        29.98R FOG
Cincinnati     CLOUDY    55  54  96 N13       29.92R FOG
Columbus       DRIZZLE   55  55 100 NW6       29.91R
Detroit        CLOUDY    44  39  82 N9        30.02R
Chicago O`Hare CLOUDY    41  35  79 NE12      30.08R
Minneapolis    PTCLDY    38  34  85 CALM      30.11R
Indianapolis   CLOUDY    50  48  93 N10       29.99R FOG
Toronto Canada PTSUNNY   41  37  87 N14G21    29.95R

$$




USA.gov is the U.S. government's official web portal to all federal, state and local government web resources and services.